Wind_Speed
3 3 10 2 2 2 11 14 15 9 19 21 18 17 18 18 11 15 24 24 23 20 23 23 21 20 20 20 20 19 18 18 16 14 14 15 13 13 12 10 10 8 7 7 6 4 5 5 4
8 6 5 6 4 12 12 13 14 18 14 14 17 23 22 23 28 30 27 24 25 23 21 22 20 19 18 17 14 13 13 14 13 14 13 13 12 12 12 9 9 9 6 6 5 6 5 4 4
4 3 8 5 11 13 13 14 11 11 8 11 23 25 22 25 26 26 29 25 21 16 18 19 17 15 14 13 12 11 11 11 11 11 11 12 10 11 12 10 9 9 7 7 6 5 6 5 4
5 11 12 11 19 16 14 13 12 12 9 20 26 19 24 22 26 28 29 27 24 20 16 19 16 14 12 12 11 9 10 9 10 10 11 11 11 11 12 10 10 9 9 8 7 6 6 6 5
13 9 6 14 19 17 8 16 14 12 12 22 28 22 22 24 26 26 28 25 26 21 17 18 16 15 13 11 9 8 8 9 9 9 10 11 10 10 10 9 8 8 7 7 6 6 6 6 5
14 10 7 15 18 13 10 15 16 15 19 27 25 21 24 24 23 23 27 31 21 18 19 17 15 13 12 9 9 8 8 9 7 9 7 9 7 8 7 7 7 7 6 5 5 4 5 4 4
20 7 12 19 17 12 15 15 13 18 20 21 21 19 24 23 22 22 20 28 22 20 15 15 14 13 11 9 9 8 7 7 7 8 8 7 7 7 6 6 5 5 4 3 3 3 3 4 3
7 3 5 17 14 14 10 20 17 14 15 20 19 18 23 25 22 20 20 19 22 22 16 12 11 12 10 9 8 7 7 7 8 8 7 9 9 6 6 4 3 3 2 1 2 2 2 2 3
13 4 13 9 19 9 16 15 16 14 13 8 12 23 27 26 23 20 19 19 22 17 16 15 12 8 11 6 6 6 6 7 7 8 6 7 7 4 4 5 4 2 1 1 1 3 3 4 5
6 4 16 8 18 13 19 12 13 12 12 8 25 26 27 26 23 22 20 19 16 14 15 14 13 10 11 11 3 6 6 8 5 3 4 5 6 3 5 4 4 3 1 1 2 1 3 6 10
1 12 7 11 15 17 17 10 14 10 14 14 23 28 27 25 22 21 20 18 16 14 16 13 17 12 10 14 5 4 5 6 5 4 6 6 5 1 2 3 2 3 5 1 3 5 7 8 5
3 8 10 16 12 8 11 15 18 13 14 16 22 26 27 24 23 21 22 18 20 16 15 16 15 15 10 5 10 7 7 6 4 2 4 2 4 3 1 1 3 9 8 4 5 11 8 5 4
7 11 13 16 12 14 11 16 14 15 15 18 22 23 24 23 21 19 18 19 20 18 15 18 15 19 11 9 4 5 7 3 4 3 2 3 2 1 3 3 4 1 4 5 3 8 7 4 6
10 27 18 18 4 15 21 14 10 14 17 20 22 23 22 21 20 19 18 20 20 19 18 15 12 16 14 12 10 7 8 4 8 5 2 3 2 2 3 3 1 3 5 3 2 9 3 4 2
26 20 36 27 37 11 12 9 4 4 16 20 21 21 21 20 19 19 19 19 19 19 19 18 15 13 14 11 17 12 5 6 4 5 5 2 4 6 5 3 4 1 4 3 5 8 5 6 6
17 13 7 26 25 12 12 7 16 12 19 19 20 20 20 20 19 18 18 19 19 19 21 20 16 14 14 12 13 10 7 5 5 8 5 7 5 5 4 1 1 2 6 5 5 2 6 6 3
11 5 8 10 26 21 11 8 29 21 21 21 21 20 20 18 18 18 19 19 21 19 22 18 18 16 14 15 13 14 7 7 7 5 7 8 5 5 4 3 3 5 5 1 4 5 5 5 6
9 10 24 13 9 7 31 30 29 31 24 23 22 20 20 20 20 19 19 19 21 22 19 21 19 17 16 16 13 9 5 8 8 5 10 6 3 3 4 1 5 1 6 1 4 5 4 3 7
16 25 30 10 8 3 10 15 23 26 23 24 23 23 22 21 21 21 21 21 21 22 21 23 20 19 15 15 13 10 8 9 7 12 9 5 7 6 5 1 1 6 4 8 8 1 3 4 3
18 15 7 1 22 9 6 7 17 6 17 22 27 27 25 23 23 25 23 23 24 25 22 23 22 24 23 18 11 11 9 13 13 11 7 7 6 8 2 3 5 1 6 8 8 2 5 1 5
19 12 6 13 7 30 30 7 14 16 29 17 20 26 26 27 25 26 26 25 25 27 25 22 26 24 22 17 15 15 16 14 8 10 9 7 3 1 5 2 4 1 2 5 4 4 3 5 4
18 8 15 17 13 8 7 10 10 20 20 16 16 17 26 25 27 28 29 27 27 27 25 23 23 26 21 22 18 17 17 8 10 12 11 11 3 3 3 3 2 5 3 3 5 1 5 2 5
17 11 14 14 13 9 15 6 9 3 2 14 16 20 17 28 26 26 29 29 27 27 27 26 24 24 23 23 22 19 20 11 14 19 20 12 5 4 6 2 4 4 3 5 5 0 3 3 4
7 15 18 8 10 10 15 11 9 8 7 16 11 13 15 21 24 26 26 29 27 29 28 28 27 25 24 23 24 22 18 15 15 10 10 11 5 7 7 8 7 8 5 7 2 2 0 3 4
16 15 11 11 10 13 14 9 9 15 9 11 4 3 5 16 23 27 24 29 27 28 29 29 29 26 26 24 22 26 24 19 13 8 8 8 3 8 9 10 8 6 8 6 3 1 4 2 2
14 17 12 10 14 5 11 3 5 8 6 12 7 7 7 9 19 25 25 23 29 28 28 28 30 26 25 25 24 21 25 24 18 13 10 9 8 5 8 10 8 8 8 5 3 4 3 5 1
12 10 16 19 19 12 6 5 15 9 10 9 13 11 10 9 14 21 24 21 25 27 29 28 30 25 24 23 23 22 20 21 18 14 15 14 8 10 10 11 11 12 8 6 7 5 6 2 1
18 11 14 10 15 9 9 14 12 10 3 9 3 16 12 12 11 13 24 23 23 24 24 26 26 26 24 25 25 23 22 20 19 19 20 15 10 12 14 10 14 11 10 10 8 6 3 2 5
12 10 11 15 8 6 6 7 12 7 6 3 6 17 19 21 10 12 12 20 23 25 25 26 28 25 25 24 25 24 23 21 23 25 24 18 16 18 17 13 14 13 12 10 11 9 6 3 6
15 16 15 7 7 10 8 7 13 9 7 9 13 19 16 12 13 10 12 10 10 18 23 27 29 27 24 24 25 24 24 23 23 27 24 22 22 22 17 15 15 16 16 13 12 9 6 4 5
Wind_Direction
69 45 40 243 240 149 54 44 48 48 68 66 70 62 67 51 38 113 138 139 140 138 133 131 127 119 113 110 106 99 92 91 96 102 102 105 100 99 102 109 119 127 147 167 189 188 182 185 203
94 295 272 284 258 75 69 63 43 69 86 84 62 79 71 82 102 122 132 143 149 140 139 139 133 126 123 119 110 99 93 86 87 87 96 99 101 104 104 115 114 120 133 159 187 190 187 205 216
111 208 254 228 55 63 62 72 73 83 76 101 75 74 92 111 117 129 137 139 133 127 148 146 144 135 131 124 117 107 99 91 86 89 96 92 96 99 96 102 126 123 122 127 136 167 187 190 202
315 254 242 67 74 66 101 119 119 107 58 97 101 93 89 105 114 128 137 141 136 153 160 155 150 143 141 130 127 119 106 95 87 95 94 95 89 96 97 105 111 113 120 117 118 130 141 156 177
259 279 108 77 77 77 60 72 85 86 94 96 108 103 96 111 121 133 141 143 142 154 154 148 146 143 142 134 125 119 115 97 99 98 97 95 96 99 103 111 110 104 114 117 126 123 132 142 153
272 180 92 78 72 81 91 98 85 81 88 102 112 115 111 126 130 135 139 143 143 138 149 151 148 147 140 136 131 127 107 108 114 102 95 95 106 98 103 101 114 117 115 124 127 129 125 135 145
319 296 71 95 83 61 62 82 100 106 113 125 118 117 131 138 139 140 141 136 132 133 146 152 152 150 142 144 136 127 114 123 120 109 99 97 95 85 94 104 106 112 119 126 135 158 149 137 163
300 356 116 89 91 78 85 68 82 97 113 140 131 138 148 147 147 147 139 144 137 143 143 141 162 149 146 146 133 126 128 129 113 93 104 101 88 94 76 101 87 117 145 172 200 185 180 140 135
301 278 61 351 99 114 100 85 89 127 146 137 116 147 149 150 150 149 146 136 138 135 148 154 158 139 147 167 123 119 127 109 103 114 121 93 104 102 47 54 52 85 103 27 243 214 184 174 173
201 61 124 186 110 110 90 117 143 128 116 132 132 132 148 154 157 155 154 151 151 140 157 157 159 144 172 174 108 87 81 108 86 90 118 100 99 90 55 53 58 30 15 8 22 65 214 210 216
15 116 100 59 82 107 118 141 129 149 114 143 136 145 155 159 160 161 163 160 161 157 166 165 177 159 146 179 124 99 101 121 175 183 117 104 122 172 17 17 346 317 265 333 336 301 275 222 225
291 92 112 121 132 124 104 116 80 71 92 133 149 154 158 163 165 169 164 163 157 169 163 160 154 157 163 205 162 207 159 134 177 156 117 174 154 145 349 0 332 329 324 324 293 313 296 242 281
92 264 144 130 159 113 122 80 106 98 108 131 147 157 162 168 170 171 167 163 159 173 167 160 166 165 171 176 137 167 146 172 139 177 126 237 45 92 225 273 235 285 303 304 305 316 310 286 326
302 18 1 82 133 68 71 41 55 116 127 138 151 162 167 173 175 170 173 166 166 174 176 176 183 188 180 158 180 149 177 177 174 210 283 196 191 318 288 324 338 110 291 312 318 299 330 349 315
56 48 353 325 90 205 76 356 344 335 143 149 159 168 170 174 178 174 176 171 175 178 178 183 181 183 177 164 174 154 186 162 188 259 263 305 231 237 298 11 78 333 332 4 6 9 339 340 295
103 65 134 276 287 183 125 294 288 251 161 163 164 171 172 176 178 177 179 178 180 181 179 185 179 191 178 170 176 159 196 170 237 217 305 273 322 285 319 314 54 301 64 14 332 310 17 337 315
23 119 173 257 253 227 121 36 281 243 172 171 170 175 175 179 177 180 183 183 179 185 183 184 178 191 189 195 189 175 219 219 190 237 256 231 321 324 317 351 19 337 55 136 347 7 340 342 343
147 172 304 227 243 315 126 158 240 210 181 171 176 176 179 182 183 179 184 187 178 186 189 181 185 193 202 202 184 189 186 204 248 247 252 233 296 301 298 27 317 35 319 189 256 307 342 90 339
291 134 217 320 281 317 332 171 164 175 181 171 176 176 183 189 187 179 183 186 176 184 189 186 188 186 194 205 199 183 207 215 226 246 254 244 283 262 290 321 65 58 270 305 287 198 291 41 335
271 282 230 69 352 320 296 299 148 129 179 185 175 175 185 187 189 184 190 186 180 183 194 191 191 199 201 194 198 201 204 220 215 221 253 263 231 267 296 306 355 188 311 325 348 123 132 314 331
267 262 279 106 151 277 263 237 134 156 248 200 186 180 181 189 194 193 191 196 190 187 194 201 192 207 206 190 197 208 219 236 201 215 243 275 243 166 285 279 296 350 102 308 21 52 130 73 338
260 235 265 146 145 237 227 289 211 178 198 192 184 187 183 184 191 199 196 198 198 192 199 205 208 207 208 190 203 212 229 223 222 235 232 221 243 217 225 270 220 170 192 291 42 99 99 156 77
265 286 272 320 238 264 267 30 66 191 22 148 193 182 197 182 193 200 198 195 204 199 199 205 220 218 214 206 198 220 224 208 243 194 186 205 225 209 226 169 250 143 222 260 229 205 176 163 152
265 265 274 268 294 279 264 185 168 180 141 167 171 163 188 190 190 192 199 192 195 199 199 201 214 226 221 218 211 207 234 229 237 161 242 218 228 234 216 203 230 180 208 248 253 5 0 270 204
232 242 244 231 235 245 347 250 145 188 158 94 53 200 200 195 189 183 193 185 187 196 195 198 209 223 225 222 221 213 219 236 233 225 194 252 250 221 224 210 228 198 173 203 227 346 344 17 160
220 230 240 231 250 235 132 77 297 22 67 95 147 142 155 193 177 180 183 190 184 190 194 198 209 221 227 220 220 218 219 228 241 228 233 271 271 227 222 210 224 203 217 197 149 71 247 337 75
221 237 259 272 276 271 107 257 211 100 97 138 134 147 141 145 161 177 178 193 185 190 199 201 211 218 225 217 215 218 217 220 224 221 241 235 238 214 235 224 219 211 214 198 153 217 278 284 73
258 232 208 240 261 271 146 197 112 123 130 174 58 123 124 120 142 173 180 189 202 193 197 200 214 223 230 225 218 219 223 219 204 217 225 232 222 214 225 223 227 221 208 215 194 226 260 240 138
224 248 254 229 245 306 116 88 109 139 150 42 82 122 164 123 159 154 189 195 200 201 199 203 206 217 227 221 222 219 222 222 208 217 226 229 212 216 230 231 227 219 208 217 184 212 256 251 206
214 223 241 247 193 260 133 172 129 129 128 110 64 35 42 87 136 155 174 191 227 206 204 203 208 208 222 211 213 221 221 223 222 219 225 226 215 225 232 235 222 217 211 214 215 206 242 244 187
Height
1480 1478 1481 1487 1496 1474 1483 1480 1475 1476 1478 1481 1485 1486 1493 1496 1493 1522 1529 1534 1537 1538 1539 1542 1544 1545 1546 1548 1549 1550 1551 1553 1554 1555 1556 1557 1557 1558 1559 1561 1561 1562 1564 1565 1566 1567 1568 1568 1568
1478 1484 1487 1483 1490 1484 1489 1479 1480 1478 1483 1486 1492 1492 1496 1504 1507 1518 1529 1535 1536 1538 1541 1543 1545 1546 1548 1550 1552 1553 1555 1556 1557 1558 1558 1559 1560 1560 1560 1564 1563 1564 1565 1566 1567 1568 1569 1569 1569
1479 1483 1487 1477 1471 1488 1493 1482 1483 1483 1484 1487 1492 1498 1504 1513 1517 1521 1530 1535 1538 1540 1542 1545 1547 1548 1550 1552 1554 1556 1558 1558 1559 1559 1561 1560 1561 1562 1562 1565 1565 1565 1566 1568 1568 1569 1569 1570 1569
1479 1479 1476 1470 1483 1478 1480 1481 1483 1486 1489 1490 1498 1506 1512 1516 1520 1525 1531 1536 1540 1542 1544 1547 1549 1550 1553 1554 1556 1557 1558 1560 1561 1561 1562 1562 1563 1564 1563 1567 1567 1566 1567 1568 1568 1570 1571 1571 1569
1479 1477 1468 1476 1481 1480 1479 1479 1482 1486 1489 1495 1502 1511 1515 1521 1525 1528 1532 1536 1540 1543 1546 1548 1550 1552 1554 1555 1557 1559 1560 1560 1562 1563 1563 1563 1565 1566 1565 1568 1568 1567 1567 1568 1569 1570 1571 1572 1571
1471 1475 1472 1484 1484 1479 1478 1484 1487 1492 1496 1502 1508 1512 1520 1526 1528 1531 1533 1537 1541 1543 1547 1548 1551 1554 1555 1557 1558 1560 1560 1561 1563 1564 1564 1565 1567 1567 1567 1568 1568 1569 1569 1569 1570 1571 1572 1572 1573
1489 1474 1474 1476 1487 1487 1485 1485 1488 1494 1502 1505 1509 1515 1523 1529 1531 1533 1536 1537 1542 1547 1548 1550 1552 1555 1556 1558 1559 1560 1561 1563 1564 1564 1566 1566 1568 1568 1569 1569 1569 1569 1569 1569 1570 1571 1572 1572 1573
1489 1470 1475 1473 1488 1493 1487 1488 1490 1494 1500 1503 1508 1516 1522 1528 1532 1534 1538 1541 1543 1547 1550 1552 1554 1556 1558 1559 1560 1561 1563 1563 1564 1565 1567 1567 1568 1569 1570 1570 1570 1570 1570 1570 1570 1571 1571 1571 1572
1486 1486 1483 1489 1484 1490 1487 1494 1497 1499 1500 1502 1505 1513 1521 1527 1531 1534 1538 1542 1546 1549 1553 1556 1557 1558 1560 1560 1561 1563 1564 1564 1564 1566 1567 1568 1568 1569 1570 1570 1571 1571 1571 1570 1570 1569 1570 1570 1570
1483 1478 1480 1474 1474 1482 1486 1492 1494 1497 1502 1503 1505 1515 1523 1528 1531 1533 1538 1542 1546 1550 1553 1555 1557 1559 1561 1563 1564 1565 1564 1565 1566 1566 1568 1569 1569 1570 1570 1571 1571 1571 1570 1570 1570 1569 1568 1568 1568
1466 1474 1471 1474 1475 1478 1482 1483 1486 1493 1497 1504 1510 1516 1523 1528 1532 1535 1538 1543 1547 1550 1553 1556 1557 1561 1562 1563 1565 1564 1565 1566 1567 1567 1569 1570 1570 1569 1571 1570 1571 1570 1568 1570 1568 1568 1568 1566 1568
1472 1467 1466 1473 1476 1476 1480 1482 1489 1494 1499 1504 1512 1517 1523 1527 1531 1534 1536 1542 1546 1551 1553 1556 1557 1561 1564 1564 1564 1565 1567 1568 1569 1569 1569 1570 1570 1570 1571 1571 1571 1569 1569 1568 1568 1568 1566 1567 1568
1468 1464 1462 1472 1477 1481 1484 1485 1492 1496 1501 1507 1514 1520 1523 1527 1530 1534 1536 1541 1545 1550 1553 1556 1556 1559 1563 1565 1565 1568 1568 1568 1569 1570 1570 1571 1570 1570 1571 1571 1571 1571 1570 1570 1570 1569 1567 1567 1567
1470 1474 1466 1475 1471 1481 1489 1493 1494 1499 1504 1509 1515 1519 1522 1525 1528 1532 1535 1539 1543 1548 1552 1554 1556 1557 1560 1563 1565 1567 1569 1569 1569 1570 1571 1571 1571 1571 1570 1570 1570 1571 1571 1571 1571 1570 1569 1568 1568
1478 1484 1485 1482 1492 1517 1492 1501 1495 1502 1504 1509 1514 1518 1521 1523 1526 1530 1534 1538 1542 1546 1549 1552 1555 1557 1559 1561 1564 1566 1568 1569 1570 1569 1569 1570 1570 1569 1569 1570 1570 1571 1572 1571 1571 1569 1569 1568 1568
1488 1500 1538 1495 1488 1517 1497 1537 1497 1498 1502 1508 1512 1516 1519 1522 1525 1529 1532 1536 1541 1545 1546 1550 1554 1555 1558 1560 1562 1564 1567 1567 1569 1569 1569 1569 1570 1570 1571 1571 1571 1571 1571 1572 1572 1571 1570 1569 1568
1488 1524 1507 1501 1481 1487 1483 1539 1505 1501 1499 1504 1509 1513 1517 1520 1523 1527 1531 1535 1539 1543 1544 1549 1553 1554 1556 1559 1561 1563 1567 1567 1569 1570 1568 1568 1569 1570 1571 1571 1570 1572 1571 1572 1571 1571 1570 1570 1569
1504 1522 1510 1494 1470 1467 1485 1504 1492 1491 1493 1499 1504 1510 1514 1518 1521 1526 1529 1533 1536 1541 1543 1548 1551 1554 1555 1558 1561 1563 1565 1567 1567 1567 1565 1565 1568 1570 1570 1569 1571 1571 1569 1570 1570 1570 1570 1570 1570
1461 1502 1519 1483 1469 1470 1470 1474 1473 1481 1485 1489 1496 1504 1509 1514 1518 1523 1528 1531 1534 1539 1542 1545 1549 1552 1554 1557 1559 1562 1564 1564 1565 1564 1563 1566 1566 1568 1570 1569 1570 1571 1571 1570 1569 1569 1570 1571 1571
1460 1465 1468 1486 1485 1471 1469 1471 1468 1482 1482 1482 1484 1493 1501 1509 1513 1519 1525 1529 1531 1535 1539 1543 1547 1549 1552 1555 1558 1559 1559 1560 1561 1561 1560 1562 1564 1567 1569 1569 1568 1571 1570 1569 1569 1569 1569 1571 1571
1462 1465 1467 1499 1511 1485 1477 1472 1478 1482 1482 1479 1479 1485 1493 1501 1508 1514 1520 1525 1529 1531 1535 1540 1543 1546 1549 1552 1555 1556 1556 1558 1566 1570 1568 1562 1561 1565 1568 1569 1569 1571 1571 1570 1569 1570 1570 1570 1572
1471 1453 1460 1479 1491 1497 1464 1493 1466 1474 1468 1474 1476 1479 1485 1494 1502 1507 1513 1521 1525 1528 1531 1536 1540 1543 1546 1550 1552 1553 1553 1565 1570 1572 1569 1567 1559 1561 1566 1567 1569 1570 1571 1571 1571 1570 1570 1570 1571
1465 1455 1458 1459 1466 1466 1465 1499 1470 1464 1464 1474 1470 1475 1479 1485 1493 1501 1507 1514 1521 1525 1529 1532 1537 1540 1543 1546 1548 1550 1551 1563 1566 1552 1562 1561 1556 1559 1563 1564 1566 1569 1571 1572 1570 1570 1570 1570 1570
1458 1463 1462 1464 1468 1490 1464 1477 1481 1479 1467 1462 1463 1470 1472 1479 1486 1494 1502 1508 1514 1520 1525 1529 1533 1537 1541 1543 1545 1546 1547 1553 1561 1568 1569 1559 1551 1557 1561 1563 1564 1566 1568 1570 1569 1569 1569 1569 1569
1463 1471 1493 1497 1494 1490 1459 1462 1464 1459 1454 1458 1463 1465 1469 1473 1480 1489 1498 1503 1510 1517 1521 1525 1528 1533 1537 1539 1542 1544 1544 1543 1553 1556 1556 1555 1550 1557 1560 1562 1564 1565 1567 1568 1568 1568 1568 1568 1568
1463 1466 1484 1512 1495 1476 1461 1509 1510 1452 1454 1458 1461 1464 1467 1471 1476 1486 1496 1502 1506 1512 1517 1522 1523 1528 1532 1536 1538 1541 1543 1543 1542 1549 1552 1549 1553 1558 1561 1563 1564 1565 1565 1566 1567 1568 1568 1568 1567
1457 1473 1454 1468 1457 1468 1487 1477 1456 1451 1454 1456 1457 1463 1465 1470 1477 1484 1493 1501 1505 1508 1513 1518 1520 1525 1529 1532 1535 1537 1540 1542 1545 1548 1549 1553 1556 1559 1560 1562 1563 1564 1565 1565 1565 1566 1567 1567 1567
1453 1447 1472 1468 1496 1496 1487 1473 1474 1463 1458 1455 1462 1464 1471 1469 1478 1485 1490 1497 1502 1506 1512 1517 1518 1522 1526 1530 1532 1535 1538 1541 1545 1548 1550 1553 1555 1558 1558 1561 1561 1562 1564 1565 1565 1564 1564 1566 1566
1459 1460 1451 1447 1455 1479 1493 1490 1458 1462 1458 1456 1460 1463 1455 1465 1478 1484 1489 1494 1498 1502 1506 1511 1515 1518 1522 1526 1529 1532 1535 1539 1542 1544 1547 1550 1552 1554 1556 1558 1559 1559 1561 1563 1564 1564 1564 1565 1565
1445 1450 1446 1464 1476 1457 1470 1482 1450 1457 1460 1460 1461 1465 1466 1470 1477 1484 1489 1494 1497 1500 1503 1506 1509 1514 1518 1522 1525 1529 1532 1535 1538 1540 1543 1546 1549 1551 1554 1555 1556 1557 1559 1561 1561 1563 1562 1563 1564